CW3363 Weather Reports


Display with metric or nautical units.
time (UTC)temp
F
wind
direction
speed
MPH
gust
MPH
rain 1hr
in
rain 24hr
in
rain mn
in
humidity
%
barometer
mb
20210916044028 74 6 0.0 0.0 0.00 0.00 0.00 91 1011.5
20210916043532 74 6 0.0 0.0 0.00 0.00 0.00 91 1011.5
20210916043037 74 6 0.0 0.0 0.00 0.00 0.00 91 1011.5
20210916042522 74 6 0.0 0.0 0.00 0.00 0.00 91 1011.5
20210916042029 74 6 0.0 0.0 0.00 0.00 0.00 91 1011.5
20210916041534 74 6 0.0 0.0 0.00 0.00 0.00 91 1011.5
20210916041036 74 6 0.0 0.0 0.00 0.00 0.00 91 1011.5
20210916040539 74 6 0.0 0.0 0.00 0.00 0.00 91 1011.5
20210916040023 74 44 0.0 1.0 0.00 0.00 0.00 91 1011.5
20210916035528 74 44 1.0 1.0 0.00 0.00 0.00 91 1011.5
20210916035036 74 44 1.0 1.0 0.00 0.00 0.00 90 1011.5
20210916034538 74 44 1.0 1.0 0.00 0.00 0.00 90 1011.5
20210916034023 75 44 0.0 1.0 0.00 0.00 0.00 90 1011.5
20210916033526 75 44 0.0 1.0 0.00 0.00 0.00 89 1011.5
20210916033033 75 44 0.0 1.0 0.00 0.00 0.00 88 1011.5
20210916032536 75 44 0.0 1.0 0.00 0.00 0.00 88 1011.5
20210916032019 76 44 0.0 0.0 0.00 0.00 0.00 87 1011.5
20210916031525 76 44 0.0 0.0 0.00 0.00 0.00 86 1011.5
20210916031031 76 44 0.0 0.0 0.00 0.00 0.00 86 1011.5
20210916030535 76 44 0.0 1.0 0.00 0.00 0.00 85 1011.3
20210916030026 76 44 0.0 1.0 0.00 0.00 0.00 85 1011.3
20210916025531 76 44 0.0 3.0 0.00 0.00 0.00 85 1011.3
20210916025036 77 44 1.0 3.0 0.00 0.00 0.00 85 1011.1
20210916024540 77 73 1.0 2.0 0.00 0.00 0.00 84 1011.1
20210916024023 77 73 0.0 2.0 0.00 0.00 0.00 85 1011.1
20210916023530 77 70 0.0 2.0 0.00 0.00 0.00 84 1011.0
20210916023032 77 70 0.0 2.0 0.00 0.00 0.00 84 1011.0
20210916022534 77 64 1.0 2.0 0.00 0.00 0.00 85 1011.0
20210916022040 77 61 0.0 0.0 0.00 0.00 0.00 85 1010.7
20210916021525 77 58 0.0 1.0 0.00 0.00 0.00 85 1010.7
20210916021029 77 58 0.0 1.0 0.00 0.00 0.00 86 1010.7
20210916020540 77 58 0.0 1.0 0.00 0.00 0.00 87 1010.7
20210916020024 77 58 0.0 1.0 0.00 0.00 0.00 86 1010.7
20210916015527 77 58 0.0 1.0 0.00 0.00 0.00 87 1010.7
20210916015035 77 58 0.0 2.0 0.00 0.00 0.00 86 1010.5
20210916014539 77 58 1.0 2.0 0.00 0.00 0.00 87 1010.5
20210916014023 78 69 0.0 0.0 0.00 0.00 0.00 86 1010.5
20210916013526 78 69 0.0 0.0 0.00 0.00 0.00 87 1010.4
20210916013032 78 69 0.0 0.0 0.00 0.00 0.00 86 1010.4
20210916012536 78 69 0.0 0.0 0.00 0.00 0.00 86 1010.4
20210916012023 78 69 0.0 0.0 0.00 0.00 0.00 85 1010.3
20210916011532 78 69 0.0 0.0 0.00 0.00 0.00 85 1010.3
20210916011036 78 69 0.0 0.0 0.00 0.00 0.00 84 1010.3
20210916010520 78 69 0.0 1.0 0.00 0.00 0.00 84 1010.0
20210916010026 78 69 0.0 1.0 0.00 0.00 0.00 85 1010.0
20210916005529 79 69 0.0 0.0 0.00 0.00 0.00 84 1010.0
20210916005032 79 69 0.0 0.0 0.00 0.00 0.00 84 1009.9
20210916004539 79 69 0.0 1.0 0.00 0.00 0.00 84 1009.9
20210916004024 79 69 0.0 1.0 0.00 0.00 0.00 83 1009.9
20210916003526 79 58 0.0 1.0 0.00 0.00 0.00 83 1009.9
20210916003030 79 45 0.0 1.0 0.00 0.00 0.00 83 1009.9
20210916002534 79 45 0.0 1.0 0.00 0.00 0.00 83 1009.9
20210916002024 79 45 0.0 1.0 0.00 0.00 0.00 82 1009.8
20210916001528 79 45 0.0 1.0 0.00 0.00 0.00 82 1009.8
20210916001032 80 45 0.0 0.0 0.00 0.00 0.00 82 1009.8
20210916000535 80 45 0.0 0.0 0.00 0.00 0.00 81 1009.7
20210916000039 80 45 0.0 0.0 0.00 0.00 0.00 81 1009.7
20210915235524 80 45 0.0 1.0 0.00 0.00 0.00 81 1009.7
20210915235028 80 45 0.0 1.0 0.00 0.00 0.00 80 1009.5
20210915234532 80 45 0.0 2.0 0.00 0.00 0.00 80 1009.5
20210915234037 81 51 0.0 2.0 0.00 0.00 0.00 79 1009.5
20210915233522 81 60 0.0 1.0 0.00 0.00 0.00 79 1009.4
20210915233030 81 73 0.0 1.0 0.00 0.00 0.00 79 1009.4
20210915232534 81 73 0.0 1.0 0.00 0.00 0.00 79 1009.4
20210915232038 82 73 0.0 3.0 0.00 0.00 0.00 77 1009.4
20210915231541 82 51 1.0 3.0 0.00 0.00 0.00 77 1009.4
20210915231025 82 94 1.0 6.0 0.00 0.00 0.00 77 1009.4
20210915230525 82 20 1.0 6.0 0.00 0.00 0.00 76 1009.3
20210915230030 82 317 1.0 5.0 0.00 0.00 0.00 77 1009.3
20210915225531 82 9 3.0 5.0 0.00 0.00 0.00 76 1009.3
20210915225038 82 79 1.0 3.0 0.00 0.00 0.00 77 1009.1
20210915224541 82 111 0.0 2.0 0.00 0.00 0.00 77 1009.1
20210915224024 82 97 1.0 4.0 0.00 0.00 0.00 76 1009.1
20210915223530 82 345 2.0 4.0 0.00 0.00 0.00 77 1008.9
20210915223034 82 98 0.0 3.0 0.00 0.00 0.00 79 1008.9
20210915222540 82 61 2.0 4.0 0.00 0.00 0.00 78 1008.9
20210915222038 82 61 1.0 4.0 0.00 0.00 0.00 78 1009.1
20210915221529 82 66 1.0 3.0 0.00 0.00 0.00 77 1009.1
20210915221024 81 309 2.0 3.0 0.00 0.00 0.00 78 1009.1
20210915220528 81 357 1.0 2.0 0.00 0.00 0.00 80 1009.4
20210915220031 80 69 0.0 2.0 0.00 0.00 0.00 81 1009.4
20210915215534 80 130 1.0 2.0 0.00 0.00 0.00 81 1009.4
20210915215041 80 134 1.0 3.0 0.00 0.00 0.00 81 1009.3
20210915214523 80 57 0.0 4.0 0.00 0.00 0.00 80 1009.3
20210915214026 80 87 1.0 4.0 0.00 0.00 0.00 80 1009.3
20210915213529 80 317 1.0 4.0 0.00 0.00 0.00 80 1009.4
20210915213032 80 56 0.0 6.0 0.00 0.00 0.00 81 1009.4
20210915212521 80 89 3.0 6.0 0.00 0.00 0.00 82 1009.4
20210915212025 79 255 0.0 3.0 0.00 0.00 0.00 83 1009.4
20210915211527 79 73 1.0 4.0 0.00 0.00 0.00 82 1009.4
20210915211031 79 317 1.0 4.0 0.00 0.00 0.00 83 1009.4
20210915210536 79 60 0.0 6.0 0.00 0.00 0.00 82 1009.4
20210915210021 80 22 2.0 6.0 0.00 0.00 0.00 81 1009.4
20210915205526 79 77 3.0 6.0 0.00 0.00 0.00 81 1009.4
20210915205031 79 295 2.0 9.0 0.00 0.00 0.00 84 1009.5
20210915204533 78 308 0.0 9.0 0.00 0.00 0.00 84 1009.5
20210915204036 78 8 1.0 3.0 0.00 0.00 0.00 84 1009.5
20210915203526 78 291 1.0 3.0 0.00 0.00 0.00 84 1009.8
20210915203031 78 2 1.0 4.0 0.00 0.00 0.00 84 1009.8
20210915202534 78 34 1.0 4.0 0.00 0.00 0.00 84 1009.8
20210915202036 78 61 1.0 3.0 0.00 0.00 0.00 85 1010.0
20210915201539 77 49 0.0 3.0 0.00 0.00 0.00 86 1010.0
20210915201023 77 312 1.0 4.0 0.00 0.00 0.00 87 1010.0
20210915200526 77 321 2.0 4.0 0.00 0.00 0.00 87 1010.4
20210915200030 77 11 1.0 3.0 0.00 0.00 0.00 86 1010.4
20210915195533 77 114 2.0 5.0 0.00 0.00 0.00 86 1010.4
20210915195019 77 292 1.0 5.0 0.00 0.00 0.00 86 1010.4
20210915194525 77 34 1.0 4.0 0.00 0.00 0.00 86 1010.4
20210915194031 77 23 0.0 6.0 0.00 0.00 0.00 85 1010.4
20210915193533 77 320 3.0 7.0 0.00 0.00 0.00 85 1010.6
20210915193036 77 30 1.0 7.0 0.00 0.00 0.00 85 1010.6
20210915192539 77 5 1.0 5.0 0.00 0.00 0.00 87 1010.6
20210915192042 77 289 2.0 7.0 0.00 0.00 0.00 87 1010.9
20210915191524 76 293 3.0 11.0 0.00 0.00 0.00 87 1010.9
20210915191028 76 10 2.0 11.0 0.00 0.00 0.00 88 1010.9
20210915190531 76 54 2.0 5.0 0.00 0.00 0.00 88 1011.0
20210915190035 75 96 3.0 5.0 0.00 0.00 0.00 90 1011.0
20210915185538 75 319 1.0 7.0 0.00 0.00 0.00 89 1011.0
20210915185024 75 10 3.0 7.0 0.00 0.00 0.00 89 1011.4
20210915184532 75 306 2.0 4.0 0.00 0.00 0.00 90 1011.4
20210915184035 75 100 2.0 5.0 0.00 0.00 0.00 90 1011.4
20210915183521 75 330 2.0 5.0 0.00 0.00 0.00 91 1011.5
20210915183023 75 295 2.0 5.0 0.00 0.00 0.00 92 1011.5
20210915182530 74 56 1.0 5.0 0.00 0.00 0.00 93 1011.5
20210915182032 74 82 1.0 6.0 0.00 0.00 0.00 93 1011.7
20210915181536 74 331 2.0 6.0 0.00 0.00 0.00 93 1011.7
20210915181039 74 303 1.0 3.0 0.00 0.00 0.00 93 1011.7
20210915180521 74 7 1.0 4.0 0.00 0.00 0.00 93 1012.0
20210915180028 74 317 1.0 4.0 0.00 0.00 0.00 93 1012.0
20210915175531 74 281 1.0 4.0 0.00 0.00 0.00 93 1012.0
20210915175039 74 11 2.0 3.0 0.00 0.00 0.00 93 1012.1
20210915174522 74 56 1.0 4.0 0.00 0.00 0.00 93 1012.1
20210915174025 74 56 2.0 5.0 0.00 0.00 0.00 93 1012.1
20210915173528 74 140 2.0 7.0 0.00 0.00 0.00 92 1012.1
20210915173032 74 20 4.0 7.0 0.00 0.00 0.00 92 1012.1
20210915172535 74 330 3.0 6.0 0.00 0.00 0.00 92 1012.1
20210915172037 74 319 1.0 5.0 0.00 0.00 0.00 92 1012.2
20210915171523 74 141 2.0 6.0 0.00 0.00 0.00 93 1012.2
20210915171026 74 11 1.0 6.0 0.00 0.00 0.00 92 1012.2
20210915170529 74 349 3.0 8.0 0.00 0.00 0.00 92 1012.4
20210915170019 74 298 4.0 8.0 0.00 0.00 0.00 92 1012.4
20210915165525 74 349 2.0 7.0 0.00 0.00 0.00 93 1012.4
20210915165027 74 295 2.0 7.0 0.00 0.00 0.00 95 1012.4
20210915164553 73 288 1.0 4.0 0.00 0.00 0.00 96 1012.4
20210915164021 73 270 2.0 4.0 0.00 0.00 0.00 95 1012.4
20210915163524 73 314 1.0 4.0 0.00 0.00 0.00 95 1012.3
20210915163027 73 300 1.0 6.0 0.00 0.00 0.00 95 1012.3
20210915162529 73 338 3.0 6.0 0.00 0.00 0.00 95 1012.3
20210915162031 73 314 2.0 7.0 0.00 0.00 0.00 96 1012.1
20210915161533 73 2 2.0 7.0 0.00 0.00 0.00 95 1012.1
20210915161035 73 355 3.0 7.0 0.00 0.00 0.00 95 1012.1
20210915160536 73 304 3.0 7.0 0.00 0.00 0.00 95 1011.9
20210915160039 73 319 2.0 4.0 0.00 0.00 0.00 95 1011.9
20210915155540 73 317 1.0 4.0 0.00 0.00 0.00 95 1011.9
20210915155023 73 11 1.0 4.0 0.00 0.00 0.00 96 1011.7
20210915154529 73 339 1.0 6.0 0.00 0.00 0.00 96 1011.7
20210915154030 73 255 1.0 6.0 0.00 0.00 0.00 96 1011.7
20210915153535 72 10 2.0 6.0 0.00 0.00 0.00 96 1011.6
20210915153038 72 305 2.0 6.0 0.00 0.00 0.00 96 1011.6
20210915152519 72 340 1.0 7.0 0.00 0.00 0.00 96 1011.6
20210915152025 72 11 1.0 7.0 0.00 0.00 0.00 96 1011.6
20210915151528 72 287 1.0 4.0 0.00 0.00 0.00 96 1011.6
20210915151031 72 303 1.0 5.0 0.00 0.00 0.00 96 1011.6
20210915150533 72 290 1.0 5.0 0.00 0.00 0.00 96 1011.5
20210915150036 72 82 1.0 5.0 0.00 0.00 0.00 96 1011.5
20210915145519 72 317 2.0 6.0 0.00 0.00 0.00 96 1011.5
20210915145030 72 301 0.0 6.0 0.00 0.00 0.00 96 1011.4
20210915144530 72 252 2.0 6.0 0.00 0.00 0.00 96 1011.4
20210915144032 72 318 2.0 4.0 0.00 0.00 0.00 96 1011.4
20210915143530 72 312 1.0 6.0 0.00 0.00 0.00 96 1011.0
20210915143033 72 68 1.0 6.0 0.00 0.00 0.00 96 1011.0
20210915142538 72 310 1.0 5.0 0.00 0.00 0.00 96 1011.0
20210915142040 72 312 2.0 4.0 0.00 0.00 0.00 96 1011.0
20210915141523 72 322 2.0 3.0 0.00 0.00 0.00 97 1011.0
20210915141026 72 10 1.0 4.0 0.00 0.00 0.00 97 1011.0
20210915140612 72 301 1.0 4.0 0.00 0.00 0.00 97 1010.9
20210915140028 72 1 2.0 4.0 0.00 0.00 0.00 97 1010.9
20210915135518 71 47 2.0 4.0 0.00 0.00 0.00 97 1010.9
20210915135030 71 3 2.0 4.0 0.00 0.00 0.00 97 1010.9
20210915134534 71 299 2.0 4.0 0.00 0.00 0.00 97 1010.9
20210915134035 71 13 1.0 3.0 0.00 0.00 0.00 97 1010.9
20210915133521 71 313 1.0 3.0 0.00 0.00 0.00 97 1010.8
20210915133025 71 33 1.0 3.0 0.00 0.00 0.00 97 1010.8
20210915132528 71 314 1.0 4.0 0.00 0.00 0.00 97 1010.8
20210915132032 71 4 1.0 5.0 0.00 0.00 0.00 97 1010.8
20210915131534 71 296 3.0 5.0 0.00 0.00 0.00 97 1010.8
20210915131037 71 310 1.0 4.0 0.00 0.00 0.00 97 1010.8
20210915130540 71 298 2.0 4.0 0.00 0.00 0.00 97 1010.7
20210915130023 71 298 2.0 3.0 0.00 0.00 0.00 97 1010.7
20210915125525 71 298 2.0 3.0 0.00 0.00 0.00 97 1010.7
20210915125030 71 326 2.0 3.0 0.00 0.00 0.00 97 1010.4
20210915124533 71 305 0.0 3.0 0.00 0.00 0.00 96 1010.4
20210915124036 71 338 1.0 3.0 0.00 0.00 0.00 96 1010.4
20210915123523 71 305 1.0 6.0 0.00 0.00 0.00 96 1010.3
20210915123025 71 20 2.0 6.0 0.00 0.00 0.00 96 1010.3
20210915122529 71 71 0.0 3.0 0.00 0.00 0.00 96 1010.3
20210915122031 71 304 1.0 7.0 0.00 0.00 0.00 96 1010.0
20210915121535 71 10 1.0 4.0 0.00 0.00 0.00 96 1010.0
20210915121021 71 255 0.0 4.0 0.00 0.00 0.00 96 1010.0
20210915120525 71 58 1.0 4.0 0.00 0.00 0.00 96 1009.9
20210915120029 71 65 2.0 5.0 0.00 0.00 0.00 96 1009.9
20210915115533 71 286 1.0 6.0 0.00 0.00 0.00 96 1009.9
20210915115035 71 348 2.0 6.0 0.00 0.00 0.00 96 1009.6
20210915114522 71 352 1.0 3.0 0.00 0.00 0.00 96 1009.6
20210915114027 72 318 1.0 6.0 0.00 0.00 0.00 96 1009.6
20210915113530 72 295 1.0 6.0 0.00 0.00 0.00 96 1009.6
20210915113034 72 21 1.0 4.0 0.00 0.00 0.00 96 1009.6
20210915112536 72 73 1.0 4.0 0.00 0.00 0.00 96 1009.6
20210915112023 72 61 0.0 6.0 0.00 0.00 0.00 96 1009.4
20210915111526 72 229 1.0 3.0 0.00 0.00 0.00 96 1009.4
20210915111029 71 345 1.0 4.0 0.00 0.00 0.00 96 1009.4
20210915110534 71 286 2.0 4.0 0.00 0.00 0.00 96 1009.0
20210915110037 71 314 1.0 5.0 0.00 0.00 0.00 96 1009.0
20210915105525 71 312 1.0 5.0 0.00 0.00 0.00 96 1009.0
20210915105031 71 46 1.0 2.0 0.00 0.00 0.00 96 1008.9
20210915104534 71 310 0.0 4.0 0.00 0.00 0.00 96 1008.9
20210915104021 71 324 1.0 4.0 0.00 0.00 0.00 96 1008.9
20210915103524 71 314 1.0 3.0 0.00 0.00 0.00 96 1008.8
20210915103026 71 300 1.0 4.0 0.00 0.00 0.00 96 1008.8
20210915102533 71 307 2.0 4.0 0.00 0.00 0.00 96 1008.8
20210915102036 71 27 0.0 4.0 0.00 0.00 0.00 96 1008.7